Lulu Pass Weather Station

This weather station provides temperature, relative humidity (RH), wind speed, gust or max wind speed, and wind direction at 10020ft near Lulu Pass at the head of Fisher Creek. This data can be used with temperature and precipitation data from the Fisher Creek SNOTEL site.

This weather station was purchased by the Friends of the Avalanche Center.

If the data has not been updated recently you can view it directly on datagarrison.com

Elevation
10020ft
Jump to table bottom
Date Time Temperature
deg F
RH, % Wind Speed Wind Gust Wind Direction
08/15/22 20:00 55.9 45 3 8 E - 74
08/15/22 19:00 57.8 43 7 19 S - 164
08/15/22 18:00 63.0 32 6 17 W - 263
08/15/22 17:00 64.8 31 9 22 W - 264
08/15/22 16:00 64.2 33 7 17 SW - 240
08/15/22 15:00 63.0 37 13 27 W - 288
08/15/22 14:00 61.3 37 12 24 S - 195
08/15/22 13:00 62.7 40 7 16 SW - 215
08/15/22 12:00 61.8 43 9 19 S - 198
08/15/22 11:00 61.7 45 8 16 S - 194
08/15/22 10:00 59.5 53 6 15 S - 171
08/15/22 09:00 58.7 58 4 13 S - 168
08/15/22 08:00 56.6 61 3 7 SE - 150
08/15/22 07:00 50.6 69 1 3 SW - 225
08/15/22 06:00 48.1 67 3 5 SW - 243
08/15/22 05:00 50.0 65 3 6 W - 260
08/15/22 04:00 50.6 61 3 5 W - 248
08/15/22 03:00 48.9 57 2 4 SW - 232
08/15/22 02:00 50.8 56 3 6 SE - 157
08/15/22 01:00 50.4 63 5 8 E - 107
08/15/22 00:00 47.9 73 5 9 SE - 117
08/14/22 23:00 46.0 78 4 10 SE - 125
08/14/22 22:00 45.9 79 5 12 NE - 49
08/14/22 21:00 45.9 83 4 12 NE - 28
08/14/22 20:00 46.6 76 5 16 NE - 51
08/14/22 19:00 48.4 76 5 15 NE - 65
08/14/22 18:00 48.6 72 5 21 N - 15
08/14/22 17:00 52.5 58 8 22 NE - 24
08/14/22 16:00 55.0 57 9 18 N - 340
08/14/22 15:00 58.2 55 10 18 W - 272
08/14/22 14:00 63.3 50 7 16 SW - 208
08/14/22 13:00 63.9 56 8 17 S - 184
08/14/22 12:00 59.8 62 5 14 S - 198
08/14/22 11:00 57.2 57 5 16 S - 184
08/14/22 10:00 57.2 60 4 12 SE - 153
08/14/22 09:00 56.9 62 1 5 NW - 337
08/14/22 08:00 52.9 64 4 7 NW - 316
08/14/22 07:00 49.9 67 5 9 NW - 327
08/14/22 06:00 48.5 69 8 10 N - 341
08/14/22 05:00 47.6 69 9 11 NW - 317
08/14/22 04:00 48.5 67 9 14 NW - 310
08/14/22 03:00 49.4 67 8 12 NW - 323
08/14/22 02:00 48.7 68 8 10 NW - 323
08/14/22 01:00 48.8 68 5 10 N - 340
08/14/22 00:00 50.1 64 2 5 S - 166
08/13/22 23:00 51.3 69 3 6 E - 105
08/13/22 22:00 50.1 88 5 14 SE - 125
08/13/22 21:00 45.9 94 6 16 SE - 140
08/13/22 20:00 46.1 89 10 22 SE - 140
08/13/22 19:00 48.2 85 8 19 S - 173